IW5EFR Vecchia di Pontedera IT current weather conditions

sailwx.info

Wind from 192 at 3 knots gusting 4

Air temperature 19.4° C
Dewpoint 17.4° C

Last reported at 2017-Jun-23 01:05 UTC.
Time now 2017-Jun-23 01:40 UTC

Location: N 43°37' E 010°38'.
View on Google Maps.

See reports from other nearby stations

  
Tides and Currents Weather Stations Pressure Air Temp Water Temp Dewpoint Dewpoint Depression Visibility Wind Speed Wind Dir Waves Ship Positions
date/time (UTC)wind fromknots sea level pressurealtimeterstation pressurevisibilityair tempwater tempwave heightnotes
2017-Jun-23 01:05 192 3 gusting 4 19.4
2017-Jun-23 01:00 192 0 gusting 4 20.0
2017-Jun-23 00:55 192 2 gusting 4 20.0
2017-Jun-23 00:50 193 2 gusting 4 20.0
2017-Jun-23 00:45 193 2 gusting 4 20.0
2017-Jun-23 00:40 196 3 gusting 3 20.0
2017-Jun-23 00:35 201 1 gusting 3 20.0
2017-Jun-23 00:30 213 2 gusting 3 20.0
2017-Jun-23 00:25 219 0 gusting 3 20.0
2017-Jun-22 23:25 236 22.2
2017-Jun-22 23:20 236 22.2
2017-Jun-22 23:15 236 22.2
2017-Jun-22 23:10 236 22.8
2017-Jun-22 23:05 236 23.3
2017-Jun-22 23:00 236 23.3
2017-Jun-22 22:55 236 23.3
2017-Jun-22 22:50 236 23.3
2017-Jun-22 22:45 236 23.3
2017-Jun-22 22:41 236 0 23.3
2017-Jun-22 22:35 236 23.3
2017-Jun-22 22:30 235 22.8
2017-Jun-22 22:25 235 23.3
2017-Jun-22 22:20 236 23.3
2017-Jun-22 22:15 237 23.3
2017-Jun-22 22:10 237 23.3
2017-Jun-22 22:05 237 23.3
2017-Jun-22 22:00 237 0 23.3
2017-Jun-22 21:55 236 22.8
2017-Jun-22 21:50 236 22.8
2017-Jun-22 21:45 236 22.8
2017-Jun-22 21:40 236 23.3
2017-Jun-22 21:35 236 23.3
2017-Jun-22 21:30 236 23.3
2017-Jun-22 21:25 237 23.3
2017-Jun-22 21:20 237 23.3
2017-Jun-22 21:15 237 23.3
2017-Jun-22 21:10 237 23.3
2017-Jun-22 21:05 237 0 23.9
2017-Jun-22 21:00 237 23.9
2017-Jun-22 20:55 237 23.9
2017-Jun-22 20:50 237 24.4
2017-Jun-22 20:45 237 24.4
2017-Jun-22 20:40 237 24.4
2017-Jun-22 20:35 237 24.4
2017-Jun-22 20:30 253 24.4
2017-Jun-22 20:25 253 24.4
2017-Jun-22 20:20 253 24.4
2017-Jun-22 20:15 253 2 gusting 4 24.4
2017-Jun-22 20:10 253 2 gusting 4 24.4
2017-Jun-22 20:05 253 2 gusting 4 25.0
2017-Jun-22 20:00 253 2 gusting 4 25.0
2017-Jun-22 19:55 253 0 gusting 4 25.0
2017-Jun-22 19:50 253 1 gusting 5 25.0
2017-Jun-22 19:45 252 1 gusting 5 25.0
2017-Jun-22 19:40 252 0 gusting 5 25.0
2017-Jun-22 19:35 251 3 gusting 5 25.0
2017-Jun-22 19:30 254 3 gusting 5 25.0
2017-Jun-22 19:26 252 25.6
2017-Jun-22 19:21 259 3 gusting 6 25.6
2017-Jun-22 19:16 260 2 gusting 6 25.6
2017-Jun-22 19:11 256 4 gusting 6 25.6
2017-Jun-22 19:06 254 2 gusting 6 25.6
2017-Jun-22 19:01 255 1 gusting 5 26.1
2017-Jun-22 18:56 250 5 gusting 5 26.1
2017-Jun-22 18:51 244 0 gusting 6 26.1
2017-Jun-22 18:46 259 0 gusting 6 26.1
2017-Jun-22 18:41 265 3 gusting 6 26.7
2017-Jun-22 18:36 269 1 gusting 6 26.7
2017-Jun-22 18:31 257 2 gusting 7 26.7
2017-Jun-22 18:26 268 3 gusting 7 26.7
2017-Jun-22 18:21 269 0 gusting 8 26.7
2017-Jun-22 18:16 275 3 gusting 8 27.2
2017-Jun-22 18:11 298 5 gusting 9 27.2
2017-Jun-22 18:06 257 2 gusting 9 27.2
2017-Jun-22 18:01 267 6 gusting 7 27.8
2017-Jun-22 17:56 298 6 gusting 7 27.8
2017-Jun-22 17:51 274 2 gusting 12 28.3
2017-Jun-22 17:46 272 5 gusting 12 28.3
2017-Jun-22 17:41 252 2 gusting 11 28.3
2017-Jun-22 17:36 300 5 gusting 11 28.3
2017-Jun-22 17:31 244 4 gusting 8 28.3
2017-Jun-22 17:26 280 5 gusting 8 28.3
2017-Jun-22 17:21 291 5 gusting 11 28.3
2017-Jun-22 17:16 267 3 gusting 11 28.9
2017-Jun-22 17:11 279 5 gusting 10 28.9
2017-Jun-22 17:06 265 2 gusting 10 28.9
2017-Jun-22 17:01 288 4 gusting 11 28.9
2017-Jun-22 16:55 263 3 gusting 11 28.9
2017-Jun-22 16:50 275 6 gusting 9 28.9
2017-Jun-22 16:45 261 5 gusting 9 29.4
2017-Jun-22 16:40 265 6 gusting 11 29.4
2017-Jun-22 16:35 267 5 gusting 11 29.4
2017-Jun-22 16:30 337 5 gusting 11 29.4
2017-Jun-22 16:25 257 6 gusting 11 29.4
2017-Jun-22 16:20 265 6 gusting 12 29.4
2017-Jun-22 16:15 269 4 gusting 12 29.4
2017-Jun-22 16:10 263 4 gusting 9 30.0
2017-Jun-22 16:05 301 7 gusting 9 30.0
2017-Jun-22 16:00 276 1 gusting 11 30.0
2017-Jun-22 15:55 269 7 gusting 11 30.0
2017-Jun-22 15:50 272 3 gusting 11 30.0
2017-Jun-22 15:45 302 6 gusting 11 30.6
2017-Jun-22 15:40 272 3 gusting 11 30.6
2017-Jun-22 15:35 280 2 gusting 11 30.6
2017-Jun-22 15:30 276 6 gusting 11 30.6
2017-Jun-22 15:25 276 2 gusting 11 30.6
2017-Jun-22 15:20 264 7 gusting 12 30.6
2017-Jun-22 15:15 309 4 gusting 12 31.1
2017-Jun-22 15:10 329 31.1
2017-Jun-22 15:05 282 5 gusting 12 31.1
2017-Jun-22 15:00 302 3 gusting 10 31.1
2017-Jun-22 14:55 322 8 gusting 10 31.1
2017-Jun-22 14:50 284 5 gusting 11 31.1
2017-Jun-22 14:45 276 4 gusting 11 31.7
2017-Jun-22 14:40 282 6 gusting 12 31.1
2017-Jun-22 14:36 309 3 gusting 12 31.1
2017-Jun-22 14:30 260 6 gusting 11 31.1
2017-Jun-22 14:25 247 4 gusting 11 31.1
2017-Jun-22 14:20 265 5 gusting 10 31.1
2017-Jun-22 14:15 321 4 gusting 10 31.1
2017-Jun-22 14:10 298 8 gusting 13 31.1
2017-Jun-22 14:05 294 3 gusting 13 31.1
2017-Jun-22 14:00 257 4 gusting 12 30.6
2017-Jun-22 13:55 277 8 gusting 12 30.6
2017-Jun-22 13:50 263 6 gusting 11 30.6
2017-Jun-22 13:45 286 9 gusting 11 31.1
2017-Jun-22 13:40 240 8 gusting 13 31.1
2017-Jun-22 13:35 277 9 gusting 13 31.1
2017-Jun-22 13:30 311 3 gusting 11 31.1
2017-Jun-22 13:25 259 6 gusting 11 31.1
2017-Jun-22 13:20 267 6 gusting 10 31.1
2017-Jun-22 13:15 304 8 gusting 10 31.1
2017-Jun-22 13:10 338 6 gusting 13 31.1
2017-Jun-22 13:05 289 3 gusting 13 31.1
2017-Jun-22 13:00 342 4 gusting 11 31.1
2017-Jun-22 12:55 267 7 gusting 11 31.1
2017-Jun-22 12:50 263 6 gusting 12 31.1
2017-Jun-22 12:45 290 4 gusting 12 31.1
2017-Jun-22 12:40 309 6 gusting 11 31.1
2017-Jun-22 12:30 256 5 gusting 9 30.6
2017-Jun-22 12:25 294 4 gusting 9 31.1
2017-Jun-22 12:20 254 5 gusting 10 30.6
2017-Jun-22 12:15 323 2 gusting 10 30.6
2017-Jun-22 12:10 271 6 gusting 11 30.6
2017-Jun-22 12:05 261 8 gusting 11 30.6
2017-Jun-22 12:01 285 8 gusting 11 30.6
2017-Jun-22 11:56 273 5 gusting 11 30.6
2017-Jun-22 11:51 349 5 gusting 13 30.6
2017-Jun-22 11:46 271 6 gusting 13 31.1
2017-Jun-22 11:41 255 1 gusting 9 31.1
2017-Jun-22 11:36 261 6 gusting 9 31.1
2017-Jun-22 11:31 283 0 gusting 9 31.1
2017-Jun-22 11:26 277 2 gusting 9 31.1
2017-Jun-22 11:21 255 5 gusting 7 31.1
2017-Jun-22 11:16 305 1 gusting 7 31.1
2017-Jun-22 11:11 271 3 gusting 12 31.1
2017-Jun-22 11:06 292 5 gusting 12 31.1
2017-Jun-22 11:01 301 1 gusting 10 31.1
2017-Jun-22 10:56 293 31.1
2017-Jun-22 10:51 339 3 gusting 9 31.1
2017-Jun-22 10:46 273 6 gusting 9 31.1
2017-Jun-22 10:41 315 0 gusting 6 31.1
2017-Jun-22 10:36 315 3 gusting 6 30.6
2017-Jun-22 10:31 302 1 gusting 6 30.6
2017-Jun-22 10:25 308 30.0
2017-Jun-22 10:20 300 1 gusting 8 30.0
2017-Jun-22 10:16 304 0 gusting 8 30.0
2017-Jun-22 10:10 263 1 gusting 6 30.0
2017-Jun-22 10:05 261 0 gusting 6 30.0
2017-Jun-22 10:00 261 1 gusting 6 30.0
2017-Jun-22 09:55 259 1 gusting 6 30.0
2017-Jun-22 09:50 260 3 gusting 5 30.0
2017-Jun-22 09:45 259 0 gusting 5 29.4
2017-Jun-22 09:40 254 0 gusting 5 29.4
2017-Jun-22 09:35 254 0 gusting 5 29.4
2017-Jun-22 09:30 246 1 gusting 4 29.4
2017-Jun-22 09:25 244 1 gusting 4 28.9
2017-Jun-22 09:20 217 1 gusting 4 28.9
2017-Jun-22 09:15 201 3 gusting 4 28.9
2017-Jun-22 09:10 196 28.9
2017-Jun-22 09:05 200 0 gusting 6 28.9
2017-Jun-22 09:00 200 28.3
2017-Jun-22 08:55 184 28.3
2017-Jun-22 08:50 199 27.8
2017-Jun-22 08:45 199 27.8
2017-Jun-22 08:40 199 27.2
2017-Jun-22 08:35 194 27.2
2017-Jun-22 08:30 194 1 gusting 3 26.7
2017-Jun-22 08:25 178 26.7
2017-Jun-22 08:20 178 0 gusting 2 26.1
2017-Jun-22 08:15 180 2 gusting 2 26.1
2017-Jun-22 08:10 180 0 gusting 3 26.1
2017-Jun-22 08:05 180 0 gusting 3 26.1
2017-Jun-22 08:00 180 1 gusting 3 25.6
2017-Jun-22 07:55 180 25.6
2017-Jun-22 07:50 169 0 gusting 3 25.6
2017-Jun-22 07:45 152 1 gusting 3 25.6
2017-Jun-22 07:40 148 0 gusting 0 26.1
2017-Jun-22 07:35 148 26.1
2017-Jun-22 07:30 148 25.6
2017-Jun-22 07:25 148 25.6
2017-Jun-22 07:20 148 25.6
2017-Jun-22 07:15 148 25.0
2017-Jun-22 07:10 148 25.0
2017-Jun-22 07:05 148 25.0
2017-Jun-22 07:00 148 24.4
2017-Jun-22 06:55 148 23.9
2017-Jun-22 06:50 148 23.3
2017-Jun-22 06:45 148 1 gusting 2 23.3
2017-Jun-22 06:41 148 1 gusting 2 23.3
2017-Jun-22 06:36 148 1 gusting 2 22.8
2017-Jun-22 06:31 148 22.2
2017-Jun-22 06:26 148 21.7
2017-Jun-22 06:21 148 21.1
2017-Jun-22 06:16 148 1 gusting 4 21.1
2017-Jun-22 06:11 148 4 gusting 3 20.6
2017-Jun-22 06:06 149 0 gusting 3 20.6
2017-Jun-22 06:00 149 1 gusting 5 20.0
2017-Jun-22 05:55 149 0 gusting 5 20.0
2017-Jun-22 05:50 149 19.4
2017-Jun-22 05:45 149 3 gusting 5 19.4
2017-Jun-22 05:40 152 4 gusting 4 18.9
2017-Jun-22 05:35 155 1 gusting 4 18.9
2017-Jun-22 05:30 155 3 gusting 4 18.9
2017-Jun-22 05:25 155 2 gusting 4 18.3
2017-Jun-22 05:20 155 1 gusting 5 18.3
2017-Jun-22 05:15 155 3 gusting 5 18.3
2017-Jun-22 05:10 155 4 gusting 4 17.8
2017-Jun-22 05:05 155 3 gusting 4 17.8
2017-Jun-22 05:00 155 17.8
2017-Jun-22 04:55 155 3 gusting 6 17.8
2017-Jun-22 04:50 155 4 gusting 5 17.2
2017-Jun-22 04:45 162 3 gusting 5 17.2
2017-Jun-22 04:40 162 2 gusting 5 17.2
2017-Jun-22 04:35 165 3 gusting 5 17.2
2017-Jun-22 04:30 167 3 gusting 4 17.2
2017-Jun-22 04:25 168 4 gusting 4 17.2
2017-Jun-22 04:20 162 3 gusting 4 16.7
2017-Jun-22 04:15 162 16.7
2017-Jun-22 04:10 162 3 gusting 3 16.7
2017-Jun-22 04:05 162 1 gusting 3 17.2
2017-Jun-22 04:00 162 1 gusting 3 17.2
2017-Jun-22 03:55 162 1 gusting 3 17.2
2017-Jun-22 03:50 162 0 gusting 4 17.2
2017-Jun-22 03:45 162 2 gusting 4 17.2
2017-Jun-22 03:40 162 2 gusting 3 17.2
2017-Jun-22 03:35 162 2 gusting 3 17.2
2017-Jun-22 03:30 162 1 gusting 4 17.2
2017-Jun-22 03:25 162 0 gusting 4 17.2
2017-Jun-22 03:20 162 3 gusting 4 17.2
2017-Jun-22 03:15 162 2 gusting 4 17.2
2017-Jun-22 03:10 161 0 gusting 4 17.2
2017-Jun-22 03:05 161 2 gusting 4 17.2
2017-Jun-22 03:00 161 2 gusting 5 17.2
2017-Jun-22 02:55 161 2 gusting 5 17.2
2017-Jun-22 02:50 161 2 gusting 5 17.2
2017-Jun-22 02:45 161 2 gusting 5 17.8
2017-Jun-22 02:40 161 4 gusting 5 17.8
2017-Jun-22 02:35 161 3 gusting 5 17.8
2017-Jun-22 02:30 159 3 gusting 5 17.8
2017-Jun-22 02:25 160 2 gusting 5 17.8
2017-Jun-22 02:20 161 3 gusting 5 17.8
2017-Jun-22 02:15 161 4 gusting 5 17.8
2017-Jun-22 02:10 161 4 gusting 6 17.8
2017-Jun-22 02:05 161 3 gusting 6 17.8
2017-Jun-22 02:00 161 3 gusting 6 17.8
2017-Jun-22 01:55 161 4 gusting 6 17.8
2017-Jun-22 01:50 163 4 gusting 5 17.8
2017-Jun-22 01:45 165 2 gusting 5 17.8
2017-Jun-22 01:40 165 5 gusting 6 17.8
2017-Jun-22 01:35 165 4 gusting 6 18.3
2017-Jun-22 01:30 165 4 gusting 6 18.3
2017-Jun-22 01:25 169 3 gusting 6 18.3
2017-Jun-22 01:20 169 3 gusting 6 18.3
2017-Jun-22 01:15 169 2 gusting 6 18.3
2017-Jun-22 01:10 169 2 gusting 6 18.3
2017-Jun-22 01:05 169 3 gusting 6 18.3
2017-Jun-22 01:00 171 4 gusting 6 18.3
2017-Jun-22 00:55 173 3 gusting 6 18.3
2017-Jun-22 00:50 173 3 gusting 5 18.3
2017-Jun-22 00:45 181 2 gusting 5 18.3
2017-Jun-22 00:40 182 2 gusting 5 18.3
2017-Jun-22 00:35 186 1 gusting 5 18.3
2017-Jun-22 00:30 188 4 gusting 4 18.3
2017-Jun-22 00:25 193 2 gusting 4 18.3
2017-Jun-22 00:20 196 2 18.3
2017-Jun-22 00:15 209 3 18.3
2017-Jun-22 00:10 225 18.3
2017-Jun-22 00:05 236 18.9
2017-Jun-22 00:00 236 18.9
2017-Jun-21 23:55 237 18.9
2017-Jun-21 23:50 237 18.9
2017-Jun-21 23:45 238 18.9
2017-Jun-21 23:40 238 19.4
2017-Jun-21 23:35 238 19.4
2017-Jun-21 23:30 238 19.4
2017-Jun-21 23:25 238 19.4
2017-Jun-21 23:20 237 19.4
2017-Jun-21 23:15 238 20.0
2017-Jun-21 23:10 238 20.0
2017-Jun-21 23:05 238 20.0
2017-Jun-21 23:00 238 20.0
2017-Jun-21 22:55 238 20.0
2017-Jun-21 22:50 240 20.6
2017-Jun-21 22:45 240 20.6
2017-Jun-21 22:40 240 20.6
2017-Jun-21 22:35 240 20.6
2017-Jun-21 22:30 244 0 21.1
2017-Jun-21 22:25 249 21.1
2017-Jun-21 22:20 250 20.6
2017-Jun-21 22:15 250 21.1
2017-Jun-21 22:10 252 21.1
2017-Jun-21 22:05 252 21.1
2017-Jun-21 22:00 252 21.1
2017-Jun-21 21:55 252 21.7
2017-Jun-21 21:50 254 21.7
2017-Jun-21 21:45 255 21.7
2017-Jun-21 21:40 255 21.7
2017-Jun-21 21:35 255 21.7
2017-Jun-21 21:30 255 22.2
2017-Jun-21 21:25 255 22.2
2017-Jun-21 21:20 255 22.2
2017-Jun-21 21:15 255 22.2
2017-Jun-21 21:10 258 22.8
2017-Jun-21 21:05 259 22.8
2017-Jun-21 21:00 263 23.3
2017-Jun-21 20:55 264 23.3
2017-Jun-21 20:50 264 23.3
2017-Jun-21 20:45 264 23.3
2017-Jun-21 20:40 264 23.3
2017-Jun-21 20:35 264 23.9
2017-Jun-21 20:30 264 23.9
2017-Jun-21 20:25 264 23.9
2017-Jun-21 20:20 264 23.9
2017-Jun-21 20:15 264 23.9
2017-Jun-21 20:10 264 23.9
2017-Jun-21 20:05 264 23.9
2017-Jun-21 20:00 264 3 gusting 3 23.9
2017-Jun-21 19:55 264 23.9
2017-Jun-21 19:50 264 24.4
2017-Jun-21 19:45 264 24.4
2017-Jun-21 19:40 264 24.4
2017-Jun-21 19:35 264 24.4
2017-Jun-21 19:30 264 1 gusting 6 24.4
2017-Jun-21 19:25 263 2 gusting 6 25.0
2017-Jun-21 19:20 260 1 gusting 5 25.0
2017-Jun-21 19:15 265 1 gusting 5 25.0
2017-Jun-21 19:10 273 2 gusting 6 25.6
2017-Jun-21 19:05 273 3 gusting 6 25.6
2017-Jun-21 19:00 262 2 gusting 5 25.6
2017-Jun-21 18:55 274 0 gusting 5 26.1
2017-Jun-21 18:50 274 1 gusting 5 26.1
2017-Jun-21 18:45 271 1 gusting 5 26.1
2017-Jun-21 18:40 266 26.7
2017-Jun-21 18:35 264 26.7
2017-Jun-21 18:30 300 1 gusting 6 26.7
2017-Jun-21 18:25 259 0 gusting 6 26.7
2017-Jun-21 18:20 276 5 gusting 7 27.2
2017-Jun-21 18:15 269 4 gusting 7 27.2
2017-Jun-21 18:10 310 1 gusting 6 27.2
2017-Jun-21 18:05 312 1 gusting 6 27.2
2017-Jun-21 18:00 264 3 gusting 8 27.8
2017-Jun-21 17:55 304 3 gusting 8 27.8
2017-Jun-21 17:50 288 2 gusting 6 27.8
2017-Jun-21 17:45 260 3 gusting 6 27.8
2017-Jun-21 17:40 298 3 gusting 9 27.8
2017-Jun-21 17:35 309 0 gusting 9 27.8
2017-Jun-21 17:30 277 1 gusting 8 28.3
2017-Jun-21 17:25 288 2 gusting 8 28.3
2017-Jun-21 17:20 268 2 gusting 9 28.3
2017-Jun-21 17:15 321 6 gusting 9 28.3
2017-Jun-21 17:10 277 2 gusting 8 28.3
2017-Jun-21 17:05 263 2 gusting 8 28.9
2017-Jun-21 17:00 277 3 gusting 9 28.9
2017-Jun-21 16:55 329 1 gusting 9 28.9
2017-Jun-21 16:50 255 4 gusting 9 28.9
2017-Jun-21 16:45 284 3 gusting 9 28.9
2017-Jun-21 16:40 263 1 gusting 9 28.9
2017-Jun-21 16:35 243 5 gusting 9 28.9
2017-Jun-21 16:30 257 5 gusting 12 29.4
2017-Jun-21 16:25 284 4 gusting 12 29.4
2017-Jun-21 16:20 271 4 gusting 11 29.4
2017-Jun-21 16:15 297 1 gusting 11 29.4
2017-Jun-21 16:10 267 5 gusting 10 29.4
2017-Jun-21 16:05 266 3 gusting 10 29.4
2017-Jun-21 16:00 269 5 gusting 11 30.0
2017-Jun-21 15:55 294 1 gusting 11 30.0
2017-Jun-21 15:50 272 6 gusting 9 30.0
2017-Jun-21 15:45 290 2 gusting 9 30.0
2017-Jun-21 15:40 268 3 gusting 8 30.0
2017-Jun-21 15:35 294 6 gusting 8 30.6
2017-Jun-21 15:30 336 4 gusting 11 30.0
2017-Jun-21 15:25 252 1 gusting 11 30.0
2017-Jun-21 15:20 252 4 gusting 11 30.0
2017-Jun-21 15:15 238 3 gusting 11 30.0
2017-Jun-21 15:10 257 5 gusting 12 30.0
2017-Jun-21 15:05 265 5 gusting 12 30.0
2017-Jun-21 15:00 259 1 gusting 10 30.0
2017-Jun-21 14:55 284 5 gusting 10 30.0
2017-Jun-21 14:50 263 4 gusting 11 30.0
2017-Jun-21 14:45 254 9 gusting 11 30.0
2017-Jun-21 14:40 295 2 gusting 11 30.0
2017-Jun-21 14:35 304 3 gusting 11 30.0
2017-Jun-21 14:30 293 6 gusting 10 30.6
2017-Jun-21 14:25 315 2 gusting 10 30.6
2017-Jun-21 14:20 292 10 gusting 13 30.6
2017-Jun-21 14:15 275 5 gusting 13 30.6
2017-Jun-21 14:10 260 4 gusting 9 30.6
2017-Jun-21 14:05 262 1 gusting 9 30.6
2017-Jun-21 14:00 259 4 gusting 13 30.6
2017-Jun-21 13:55 280 2 gusting 13 30.6
2017-Jun-21 13:50 317 4 gusting 11 30.6
2017-Jun-21 13:45 273 8 gusting 11 30.0
2017-Jun-21 13:40 269 9 gusting 11 30.6
2017-Jun-21 13:35 279 2 gusting 11 30.6
2017-Jun-21 13:30 297 6 gusting 10 30.6
2017-Jun-21 13:25 275 3 gusting 10 30.6
2017-Jun-21 13:20 263 5 gusting 11 30.6
2017-Jun-21 13:15 295 1 gusting 11 30.6
2017-Jun-21 13:10 329 3 gusting 11 30.6
2017-Jun-21 13:05 303 8 gusting 11 30.6
2017-Jun-21 13:00 294 4 gusting 13 30.6
2017-Jun-21 12:55 273 3 gusting 13 30.6
2017-Jun-21 12:50 268 3 gusting 10 30.6
2017-Jun-21 12:45 303 2 gusting 10 30.6
2017-Jun-21 12:40 275 4 gusting 13 30.6
2017-Jun-21 12:35 302 5 gusting 13 30.6
2017-Jun-21 12:30 320 4 gusting 13 30.0
2017-Jun-21 12:25 285 2 gusting 13 30.0
2017-Jun-21 12:20 289 6 gusting 7 30.0
2017-Jun-21 12:15 257 10 gusting 7 30.0
2017-Jun-21 12:10 279 6 gusting 13 30.0
2017-Jun-21 12:05 272 2 gusting 13 30.6
2017-Jun-21 12:00 288 3 gusting 10 30.0
2017-Jun-21 11:55 273 3 gusting 10 30.0
2017-Jun-21 11:50 281 6 gusting 9 30.0
2017-Jun-21 11:45 260 7 gusting 9 30.6
2017-Jun-21 11:40 255 6 gusting 9 30.0
2017-Jun-21 11:35 273 4 gusting 9 30.6
2017-Jun-21 11:30 265 4 gusting 8 30.6
2017-Jun-21 11:25 298 5 gusting 8 30.0
2017-Jun-21 11:20 261 6 gusting 6 30.6
2017-Jun-21 11:15 304 3 gusting 6 30.6
2017-Jun-21 11:10 312 4 gusting 8 30.6
2017-Jun-21 11:05 269 5 gusting 8 30.0
2017-Jun-21 11:00 270 6 gusting 9 30.0
2017-Jun-21 10:55 255 6 gusting 9 29.4
2017-Jun-21 10:50 271 4 gusting 9 30.0
2017-Jun-21 10:45 340 6 gusting 9 29.4
2017-Jun-21 10:40 262 3 gusting 9 29.4
2017-Jun-21 10:35 330 5 gusting 9 29.4
2017-Jun-21 10:30 293 8 gusting 6 30.0
2017-Jun-21 10:25 288 2 gusting 6 29.4
2017-Jun-21 10:20 282 0 gusting 6 29.4
2017-Jun-21 10:15 317 1 gusting 6 29.4
2017-Jun-21 10:10 305 4 gusting 7 29.4
2017-Jun-21 10:05 306 3 gusting 7 29.4
2017-Jun-21 10:00 265 4 gusting 6 29.4
2017-Jun-21 09:55 248 4 gusting 6 29.4
2017-Jun-21 09:50 303 0 gusting 6 28.9
2017-Jun-21 09:45 217 28.3
2017-Jun-21 09:40 220 2 gusting 7 28.3
2017-Jun-21 09:35 281 0 gusting 7 28.3
2017-Jun-21 09:30 284 2 gusting 4 28.3
2017-Jun-21 09:25 310 3 gusting 4 28.3
2017-Jun-21 09:20 302 2 gusting 6 27.8
2017-Jun-21 09:15 302 27.8
2017-Jun-21 09:10 302 2 gusting 6 27.2
2017-Jun-21 09:05 331 1 gusting 6 27.2
2017-Jun-21 09:00 331 1 gusting 6 27.2
2017-Jun-21 08:55 337 4 gusting 6 27.2
2017-Jun-21 08:50 295 0 gusting 5 27.2
2017-Jun-21 08:45 288 27.2
2017-Jun-21 08:40 247 26.7
2017-Jun-21 08:35 247 0 gusting 5 26.7
2017-Jun-21 08:30 199 1 gusting 2 26.1
2017-Jun-21 08:25 189 0 gusting 2 26.1
2017-Jun-21 08:20 189 26.1
2017-Jun-21 08:15 184 1 gusting 2 25.6
2017-Jun-21 08:10 184 25.6
2017-Jun-21 08:05 184 1 gusting 2 25.6
2017-Jun-21 08:00 185 25.0
2017-Jun-21 07:55 179 25.0
2017-Jun-21 07:50 175 25.0
2017-Jun-21 07:45 161 25.0
2017-Jun-21 07:40 161 24.4
2017-Jun-21 07:35 161 1 gusting 1 24.4
2017-Jun-21 07:30 148 0 gusting 2 24.4
2017-Jun-21 07:25 148 23.9
2017-Jun-21 07:20 148 0 gusting 3 23.9
2017-Jun-21 07:15 148 23.3
2017-Jun-21 07:10 148 1 gusting 3 23.3
2017-Jun-21 07:05 148 23.3
2017-Jun-21 07:00 148 0 gusting 2 22.8
2017-Jun-21 06:55 149 22.8
2017-Jun-21 06:50 149 22.2
2017-Jun-21 06:45 148 21.7
2017-Jun-21 06:40 149 21.7
2017-Jun-21 06:35 149 0 gusting 3 21.7
2017-Jun-21 06:30 149 2 gusting 3 21.7
2017-Jun-21 06:25 150 0 gusting 3 21.1
2017-Jun-21 06:20 150 0 gusting 3 20.6
2017-Jun-21 06:15 151 1 gusting 3 20.6
2017-Jun-21 06:10 151 1 gusting 4 20.0
2017-Jun-21 06:05 151 0 gusting 4 19.4
2017-Jun-21 06:00 151 0 gusting 3 19.4
2017-Jun-21 05:55 151 18.9
2017-Jun-21 05:50 151 2 gusting 3 18.9
2017-Jun-21 05:45 151 2 gusting 3 18.9
2017-Jun-21 05:40 152 1 gusting 5 18.9
2017-Jun-21 05:35 152 18.3
2017-Jun-21 05:30 153 1 gusting 4 17.8
2017-Jun-21 05:25 153 4 gusting 4 17.8
2017-Jun-21 05:20 153 3 gusting 6 17.2
2017-Jun-21 05:15 153 2 gusting 6 17.2
2017-Jun-21 05:10 154 1 gusting 5 17.2
2017-Jun-21 05:05 155 5 gusting 5 16.7
2017-Jun-21 05:00 158 4 gusting 5 16.7
2017-Jun-21 04:55 157 2 gusting 5 16.1
2017-Jun-21 04:50 157 3 gusting 6 16.1
2017-Jun-21 04:45 158 2 gusting 6 16.1
2017-Jun-21 04:40 160 3 gusting 5 16.1
2017-Jun-21 04:35 160 4 gusting 5 16.1
2017-Jun-21 04:30 161 1 gusting 5 16.1
2017-Jun-21 04:25 159 4 gusting 5 15.6
2017-Jun-21 04:20 161 4 gusting 5 15.6
2017-Jun-21 04:15 162 2 gusting 5 15.6
2017-Jun-21 04:10 161 3 15.6
2017-Jun-21 04:05 161 4 15.6
2017-Jun-21 04:00 160 15.6
2017-Jun-21 03:55 160 16.1
2017-Jun-21 03:50 160 16.1
2017-Jun-21 03:45 160 2 gusting 3 16.1
2017-Jun-21 03:40 160 1 gusting 3 16.1
2017-Jun-21 03:35 160 2 gusting 3 16.1
2017-Jun-21 03:30 160 0 16.1
2017-Jun-21 03:25 160 3 16.1
2017-Jun-21 03:20 160 16.1
2017-Jun-21 03:15 160 16.1
2017-Jun-21 03:10 160 16.1
2017-Jun-21 03:05 160 16.1
2017-Jun-21 03:00 160 1 gusting 4 16.1
2017-Jun-21 02:55 160 2 gusting 4 16.1
2017-Jun-21 02:50 160 1 gusting 5 16.1
2017-Jun-21 02:45 160 3 gusting 5 16.1
2017-Jun-21 02:40 161 4 gusting 5 16.7
2017-Jun-21 02:35 161 1 gusting 5 16.7
2017-Jun-21 02:30 161 3 16.7
2017-Jun-21 02:25 159 16.7
2017-Jun-21 02:20 159 16.7
2017-Jun-21 02:15 159 16.7
2017-Jun-21 02:10 159 16.7
2017-Jun-21 02:05 159 16.7
2017-Jun-21 02:00 159 1 gusting 5 16.7
2017-Jun-21 01:55 159 1 gusting 5 16.7
2017-Jun-21 01:50 159 1 gusting 4 16.7
2017-Jun-21 01:45 159 1 gusting 4 16.7
2017-Jun-21 01:40 161 2 gusting 5 17.2
2017-Jun-21 01:35 161 2 gusting 5 17.2
2017-Jun-21 01:30 161 3 gusting 5 17.2
2017-Jun-21 01:25 161 2 gusting 5 17.2
2017-Jun-21 01:20 161 3 gusting 4 17.2
2017-Jun-21 01:15 161 3 gusting 4 17.2
2017-Jun-21 01:10 161 2 gusting 3 17.2
2017-Jun-21 01:05 161 1 gusting 3 17.2
2017-Jun-21 01:00 161 17.2